{"data":{"norad_id":53979,"intl_designator":"2022-125R","name":"STARLINK-5123","alt_names":[],"object_type":"PAYLOAD","status":"ACTIVE","operator":null,"country":"US","launch_date":"2022-10-05","launch_site_code":"AFWTR","launch_vehicle":null,"mission":null,"orbit_class":"UNKNOWN","rcs_meters":null,"size_class":null,"mass_kg":null,"dimensions":null,"purposes":["comms"],"wikipedia_slug":null,"has_3d_model":false,"image_url":null,"decayed_at":null,"tle_current":{"epoch":"2026-05-24T17:48:07.432416Z","epoch_age_seconds":87533,"freshness":"FRESH","line1":"1 53979U 22125R   26144.74175269 -.00003408  00000+0 -19631-3 0  9992","line2":"2 53979  53.2169 237.7003 0001105  83.6667 276.4451 15.08810861200870","mean_motion":15.08810861,"eccentricity":0.0001105,"inclination_deg":53.2169,"raan_deg":237.7003,"arg_perigee_deg":83.6667,"mean_anomaly_deg":276.4451,"bstar":-0.00019631,"rev_number":20087,"period_min":95.439397821249,"perigee_km":539.06802103832,"apogee_km":540.59689228824,"semimajor_km":6917.9694566633,"source":"CELESTRAK","updated_at":"2026-05-25T13:38:17.619911Z"}}}